Flag for Germany Weather past 2 weeks in Bocholt, North Rhine-Westphalia, Germany

Now
66 °F

Passing clouds.


Feels Like: 66 °F
Forecast: 48 / 59 °F
Wind: 9 mph from Southwest

Location: Niederrhein

Current Time: May 27, 2015 at 6:00:42 PM

Latest Report: May 27, 2015 at 5:20 PM


Visibility: N/A

Pressure: 30.15 "Hg

Humidity: 40%

Dew point: 41 °F

Location of BocholtLocation

Historic Weather in Bocholt — Graph

°F

Bocholt temperature yesterday

Maximum temperature yesterday: 59 °F (at 2:50 PM)
Minimum temperature yesterday: 48 °F (at 4:20 AM)
Average temperature yesterday: 54 °F

Past Weeks' High & Low Weather Summary

 TemperatureHumidityPressure
High70 °F (May 22, 3:50 PM)100% (May 21, 4:50 AM)30.33 "Hg (May 21, 4:50 AM)
Low39 °F (May 14, 5:20 AM)35% (May 13, 6:20 PM)29.65 "Hg (May 18, 5:50 PM)
Average56 °F64%30.08 "Hg
* Reported May 12 4:20 PM — May 27 4:50 PM, Bocholt, Weather by CustomWeather, © 2015

Note: Actual official high and low records may vary slightly from our data, if they occured in-between our weather recording intervals... More about our weather records

Advertising

Bocholt weather history for previous 24 hours

 ConditionsComfort  
Time TempWeatherWind HumidityBarometerVisibility
4:50 PM
Wed, May 27
64 °FSunny.8 mph43%30.15 "Hg10 mi
4:20 PM66 °FPassing clouds.9 mph37%30.18 "HgN/A
3:50 PM64 °FPassing clouds.8 mph43%30.18 "HgN/A
3:20 PM64 °FPassing clouds.10 mph43%30.18 "HgN/A
2:50 PM63 °FPassing clouds.8 mph42%30.21 "HgN/A
2:20 PM63 °FPassing clouds.9 mph42%30.21 "HgN/A
1:50 PM63 °FPassing clouds.8 mph42%30.21 "HgN/A
1:20 PM61 °FPassing clouds.8 mph48%30.24 "HgN/A
12:50 PM63 °FPassing clouds.7 mph45%30.24 "HgN/A
12:20 PM59 °FPassing clouds.6 mph48%30.24 "HgN/A
11:50 AM59 °FScattered clouds.8 mph48%30.24 "HgN/A
11:20 AM59 °FPassing clouds.7 mph48%30.24 "HgN/A
10:50 AM59 °FScattered clouds.6 mph51%30.27 "HgN/A
10:20 AM57 °FScattered clouds.6 mph55%30.27 "HgN/A
9:50 AM57 °FPassing clouds.6 mph55%30.27 "HgN/A
9:20 AM57 °FPassing clouds.6 mph55%30.27 "HgN/A
8:50 AM55 °FPassing clouds.5 mph63%30.27 "HgN/A
8:20 AM54 °FPassing clouds.6 mph67%30.27 "HgN/A
7:50 AM54 °FSunny.5 mph72%30.27 "Hg10 mi
7:20 AM50 °FClear.5 mph76%30.27 "Hg10 mi
6:50 AM46 °FClear.No wind87%30.27 "Hg10 mi
6:20 AM46 °FClear.No wind82%30.27 "Hg10 mi
5:50 AM46 °FClear.2 mph87%30.24 "Hg10 mi
5:20 AM48 °FClear.No wind82%30.27 "Hg10 mi
4:50 AM48 °FClear.No wind82%30.27 "Hg10 mi
11:50 PM
Tue, May 26
52 °FPassing clouds.3 mph62%30.24 "HgN/A
11:20 PM52 °FSunny.3 mph62%30.24 "Hg10 mi
10:50 PM54 °FPartly sunny.2 mph58%30.24 "HgN/A
10:20 PM54 °FPassing clouds.6 mph54%30.24 "HgN/A
9:50 PM54 °FPassing clouds.5 mph58%30.24 "HgN/A
9:20 PM54 °FPassing clouds.6 mph58%30.24 "HgN/A
8:50 PM55 °FPassing clouds.7 mph55%30.21 "HgN/A
8:20 PM55 °FPassing clouds.7 mph55%30.21 "HgN/A
7:50 PM55 °FPassing clouds.8 mph55%30.21 "HgN/A
7:20 PM57 °FPassing clouds.8 mph51%30.21 "HgN/A
6:50 PM57 °FPassing clouds.8 mph48%30.18 "HgN/A
6:20 PM57 °FPassing clouds.9 mph44%30.18 "HgN/A
Weather by CustomWeather, © 2015

See weather overviewHow to use our weather pages